World > North America > United States > New York
Hourly Weather in Peakville, New YorkPeakville, New York Hourly Weather

Peakville, NY Hourly Weather

Hourly Weather Peakville, New YorkHourly Weather in Peakville, NY
Lat: 41.98N, Lon: 75.1W  ICAO: KMSV
Web Search

Helpful Tip: You can add this page to Bookmarks by pressing the Ctrl key & d key at the same time. Mac users press command & d.

Feedback

Peakville Hourly Weather

36 Hour Weather Scroll   °F Click to change Peakville hourly weather to Imperial units.Click to change Peakville hourly weather to Metric units. °C
Currently, Overcast, temperature is 37°F3°C, dew point 30°F-1°C, humidity 76%. Wind direction is WNW at 16 mph26 km/h with visibility of 10.00 mi16 km. Barometric pressure is 29.74 in1007 mb.

Dec 03
1:00 AM

Dec 03
2:00 AM

Dec 03
3:00 AM

Dec 03
4:00 AM

Dec 03
5:00 AM

Dec 03
6:00 AM

Dec 03
7:00 AM

Dec 03
8:00 AM

Dec 03
9:00 AM

Dec 03
10:00 AM

Dec 03
11:00 AM

Dec 03
NOON

Dec 03
1:00 PM

Dec 03
2:00 PM

Dec 03
3:00 PM

Dec 03
4:00 PM

Dec 03
5:00 PM

Dec 03
6:00 PM

Dec 03
7:00 PM

Dec 03
8:00 PM

Dec 03
9:00 PM

Dec 03
10:00 PM

Dec 03
11:00 PM

Dec 04
MIDNIGHT

Dec 04
1:00 AM

Dec 04
2:00 AM

Dec 04
3:00 AM

Dec 04
4:00 AM

Dec 04
5:00 AM

Dec 04
6:00 AM

Dec 04
7:00 AM

Dec 04
8:00 AM

Dec 04
9:00 AM

Dec 04
10:00 AM

Dec 04
11:00 AM

Dec 04
NOON
Mostly Clear Mostly Clear Partly Cloudy Partly Cloudy Partly Cloudy Partly Cloudy Partly Cloudy Partly Cloudy Mostly Cloudy Mostly Cloudy Mostly Cloudy Mostly Cloudy Mostly Cloudy Mostly Cloudy Clear Clear Clear Clear Clear Clear Partly Cloudy Partly Cloudy Partly Cloudy Cloudy Cloudy Cloudy Cloudy Cloudy Cloudy Cloudy Cloudy Cloudy Cloudy Cloudy Cloudy Cloudy
Mostly Clear Mostly Clear Partly Cloudy Partly Cloudy Partly Cloudy Partly Cloudy Partly Cloudy Partly Cloudy Mostly Cloudy Mostly Cloudy Mostly Cloudy Mostly Cloudy Mostly Cloudy Mostly Cloudy Clear Clear Clear Clear Clear Clear Partly Cloudy Partly Cloudy Partly Cloudy Cloudy Cloudy Cloudy Cloudy Cloudy Cloudy Cloudy Cloudy Cloudy Cloudy Cloudy Cloudy Cloudy
38°F3°C 37°F3°C 35°F2°C 34°F1°C 33°F1°C 33°F1°C 32°F0°C 32°F0°C 32°F0°C 32°F0°C 33°F1°C 33°F1°C 34°F1°C 34°F1°C 33°F1°C 33°F1°C 31°F-1°C 30°F-1°C 28°F-2°C 27°F-3°C 27°F-3°C 26°F-3°C 26°F-3°C 25°F-4°C 25°F-4°C 25°F-4°C 25°F-4°C 25°F-4°C 25°F-4°C 26°F-3°C 26°F-3°C 28°F-2°C 30°F-1°C 32°F0°C 33°F1°C 35°F2°C
- - - - - - - - - - - - - - - - - - - - - - - - - - - - - - - - - - - -
13% 13% 13% 13% 13% 13% 13% 0% 0% 0% 0% 0% 0% 0% 0% 0% 0% 0% 0% 0% 0% 0% 0% 0% 0% 13% 13% 13% 13% 13% 13% 11% 11% 11% 11% 11%
32°F0°C 31°F-1°C 29°F-2°C 28°F-2°C 27°F-3°C 26°F-3°C 25°F-4°C 24°F-4°C 23°F-5°C 22°F-6°C 21°F-6°C 21°F-6°C 20°F-7°C 19°F-7°C 19°F-7°C 18°F-8°C 18°F-8°C 19°F-7°C 19°F-7°C 19°F-7°C 19°F-7°C 19°F-7°C 19°F-7°C 19°F-7°C 19°F-7°C 19°F-7°C 20°F-7°C 20°F-7°C 20°F-7°C 21°F-6°C 21°F-6°C 22°F-6°C 23°F-5°C 24°F-4°C 24°F-4°C 24°F-4°C
79% 79% 78% 78% 78% 75% 75% 72% 69% 66% 61% 61% 56% 54% 56% 54% 58% 63% 69% 71% 71% 74% 74% 78% 78% 78% 81% 81% 81% 81% 81% 78% 75% 72% 69% 64%
WNW WNW NW NW NW NW NW NW NW NW NW NW NW NW WNW WNW WNW NW NW NW NW NW WNW WNW W W SSW SSW SSW SSW SSW SSW SSW SSW SSW W
17 mph 17 mph 19 mph 19 mph 19 mph 16 mph 16 mph 16 mph 15 mph 15 mph 15 mph 16 mph 16 mph 16 mph 12 mph 12 mph 12 mph 7 mph 7 mph 7 mph 4 mph 4 mph 4 mph 2 mph 2 mph 2 mph 2 mph 2 mph 2 mph 2 mph 2 mph 2 mph 4 mph 4 mph 4 mph 6 mph
10 mi16 km 10 mi16 km 10 mi16 km 10 mi16 km 10 mi16 km 10 mi16 km 10 mi16 km 10 mi16 km 10 mi16 km 10 mi16 km 10 mi16 km 10 mi16 km 10 mi16 km 10 mi16 km 10 mi16 km 10 mi16 km 10 mi16 km 10 mi16 km 10 mi16 km 10 mi16 km 10 mi16 km 10 mi16 km 10 mi16 km 10 mi16 km 10 mi16 km 10 mi16 km 10 mi16 km 10 mi16 km 10 mi16 km 10 mi16 km 10 mi16 km 10 mi16 km 10 mi16 km 10 mi16 km 10 mi16 km 10 mi16 km
Hour (EST)
Weather
Clouds
Temperature
Precip. Type
POP
Dewpoint
Humidity
Wind Direction
Wind Speed
Visibility
POP = Probability of Precipitation. ** Indicates missing data/values from model statistics.

24 Hour Forecast

Overnight - Cloudy with a chance of snow and rain showers. Lows in the upper 20s. Northwest winds 15 to 20 mph with gusts up to 30 mph. Chance of precipitation 50%.
Friday - Mostly cloudy with a chance of snow showers in the morning, then partly sunny in the afternoon. Highs in the lower 30s. Northwest winds 15 to 20 mph with gusts up to 30 mph. Chance of snow 30%.

48 Hour Forecast API Feed


Fri, Dec 3
1:00 am

Fri, Dec 3
2:00 am

Fri, Dec 3
3:00 am

Fri, Dec 3
4:00 am

Fri, Dec 3
5:00 am

Fri, Dec 3
6:00 am

Fri, Dec 3
7:00 am

Fri, Dec 3
8:00 am

Fri, Dec 3
9:00 am

Fri, Dec 3
10:00 am

Fri, Dec 3
11:00 am

Fri, Dec 3
Noon

Fri, Dec 3
1:00 pm

Fri, Dec 3
2:00 pm

Fri, Dec 3
3:00 pm

Fri, Dec 3
4:00 pm

Fri, Dec 3
5:00 pm

Fri, Dec 3
6:00 pm

Fri, Dec 3
7:00 pm

Fri, Dec 3
8:00 pm

Fri, Dec 3
9:00 pm

Fri, Dec 3
10:00 pm

Fri, Dec 3
11:00 pm

Sat, Dec 4
Midnight

Sat, Dec 4
1:00 am

Sat, Dec 4
2:00 am

Sat, Dec 4
3:00 am

Sat, Dec 4
4:00 am

Sat, Dec 4
5:00 am

Sat, Dec 4
6:00 am

Sat, Dec 4
7:00 am

Sat, Dec 4
8:00 am

Sat, Dec 4
9:00 am

Sat, Dec 4
10:00 am

Sat, Dec 4
11:00 am

Sat, Dec 4
Noon

Sat, Dec 4
1:00 pm

Sat, Dec 4
2:00 pm

Sat, Dec 4
3:00 pm

Sat, Dec 4
4:00 pm

Sat, Dec 4
5:00 pm

Sat, Dec 4
6:00 pm

Sat, Dec 4
7:00 pm

Sat, Dec 4
8:00 pm

Sat, Dec 4
9:00 pm

Sat, Dec 4
10:00 pm

Sat, Dec 4
11:00 pm

Sun, Dec 5
Midnight
Moderate Or Heavy Snow ShowersLight SnowPatchy Moderate SnowBlizzardBlizzardLight Snow ShowersLight Snow ShowersPatchy Moderate SnowPartly CloudyCloudyPatchy Light SnowPartly CloudyPartly CloudyPatchy Light SnowPartly CloudySunnyClearClearClearClearClearClearPartly CloudyPartly CloudyPartly CloudyCloudyPartly CloudyCloudyPartly CloudyCloudyOvercastMistModerate SnowOvercastHeavy SnowLight SnowModerate SnowModerate SnowCloudyLight Snow ShowersModerate Or Heavy Snow ShowersLight Snow ShowersPatchy Snow PossiblePatchy Snow PossiblePartly CloudyPartly CloudyClearClear
Moderate snow showers Light snow Patchy moderate snow Blizzard Blizzard Light snow showers Light snow showers Patchy moderate snow Partly cloudy Cloudy Patchy light snow Partly cloudy Partly cloudy Patchy light snow Partly cloudy Sunny Clear Clear Clear Clear Clear Clear Partly cloudy Partly cloudy Partly cloudy Cloudy Partly cloudy Cloudy Partly cloudy Cloudy Overcast Mist Moderate snow Overcast Heavy snow Light snow Moderate snow Moderate snow Cloudy Light snow showers Moderate snow showers Light snow showers Patchy snow possible Patchy snow possible Partly cloudy Partly cloudy Clear Clear
34°F
1°C
33°F
1°C
33°F
1°C
32°F
0°C
31°F
-1°C
30°F
-1°C
29°F
-2°C
28°F
-2°C
27°F
-3°C
28°F
-2°C
29°F
-2°C
30°F
-1°C
32°F
-0°C
32°F
0°C
32°F
0°C
32°F
-0°C
30°F
-1°C
28°F
-2°C
27°F
-3°C
24°F
-5°C
23°F
-5°C
22°F
-6°C
22°F
-6°C
22°F
-6°C
22°F
-6°C
23°F
-5°C
24°F
-4°C
24°F
-4°C
26°F
-3°C
26°F
-3°C
27°F
-3°C
26°F
-3°C
28°F
-2°C
30°F
-1°C
32°F
-0°C
33°F
1°C
36°F
2°C
38°F
3°C
39°F
4°C
38°F
3°C
37°F
3°C
35°F
2°C
35°F
1°C
33°F
0°C
31°F
-0°C
30°F
-1°C
29°F
-2°C
28°F
-2°C
31°F
-1°C
30°F
-1°C
30°F
-1°C
28°F
-2°C
26°F
-3°C
25°F
-4°C
24°F
-5°C
23°F
-5°C
22°F
-6°C
22°F
-6°C
22°F
-5°C
23°F
-5°C
24°F
-5°C
24°F
-5°C
24°F
-4°C
25°F
-4°C
24°F
-5°C
23°F
-5°C
23°F
-5°C
21°F
-6°C
21°F
-6°C
20°F
-6°C
20°F
-7°C
20°F
-6°C
20°F
-7°C
21°F
-6°C
22°F
-6°C
22°F
-6°C
22°F
-5°C
23°F
-5°C
25°F
-4°C
25°F
-4°C
26°F
-3°C
28°F
-2°C
30°F
-1°C
31°F
-0°C
33°F
1°C
34°F
1°C
34°F
1°C
34°F
1°C
33°F
1°C
31°F
-0°C
30°F
-1°C
28°F
-3°C
27°F
-3°C
26°F
-3°C
25°F
-4°C
24°F
-4°C
29.74 in
1007 mb
29.74 in
1007 mb
29.77 in
1008 mb
29.8 in
1009 mb
29.83 in
1010 mb
29.85 in
1011 mb
29.91 in
1013 mb
29.94 in
1014 mb
29.94 in
1014 mb
29.97 in
1015 mb
30 in
1016 mb
30 in
1016 mb
30 in
1016 mb
30 in
1016 mb
30 in
1016 mb
30.03 in
1017 mb
30.03 in
1017 mb
30.06 in
1018 mb
30.09 in
1019 mb
30.12 in
1020 mb
30.12 in
1020 mb
30.12 in
1020 mb
30.12 in
1020 mb
30.12 in
1020 mb
30.12 in
1020 mb
30.12 in
1020 mb
30.12 in
1020 mb
30.12 in
1020 mb
30.09 in
1019 mb
30.09 in
1019 mb
30.09 in
1019 mb
30.09 in
1019 mb
30.09 in
1019 mb
30.09 in
1019 mb
30.09 in
1019 mb
30.06 in
1018 mb
30.03 in
1017 mb
30.03 in
1017 mb
30 in
1016 mb
30.03 in
1017 mb
30.06 in
1018 mb
30.09 in
1019 mb
30.12 in
1020 mb
30.15 in
1021 mb
30.18 in
1022 mb
30.21 in
1023 mb
30.24 in
1024 mb
30.27 in
1025 mb
87%88%90%84%82%83%83%80%81%78%76%75%72%70%72%75%78%82%85%90%92%93%94%93%94%93%89%89%87%88%92%97%94%92%94%93%90%86%80%84%87%85%83%82%83%85%85%84%
WNWWNWWNWNWNWNWNWNWNWNWNWNWNWNWNWWNWWNWNWNWNWNWNNWNWNWWNWWNWWSWSWSSWSSSESSESSSSWSWWSWWSWWSWWWWNWWNWWNWWNWWNWWNW
15 mph
24 km/h
15 mph
24 km/h
16 mph
26 km/h
17 mph
27 km/h
17 mph
28 km/h
16 mph
26 km/h
16 mph
25 km/h
16 mph
26 km/h
15 mph
24 km/h
15 mph
24 km/h
15 mph
24 km/h
15 mph
23 km/h
15 mph
23 km/h
14 mph
23 km/h
13 mph
20 km/h
12 mph
19 km/h
10 mph
16 km/h
8 mph
13 km/h
6 mph
10 km/h
4 mph
6 km/h
3 mph
5 km/h
2 mph
4 km/h
2 mph
4 km/h
1 mph
2 km/h
2 mph
3 km/h
1 mph
2 km/h
1 mph
2 km/h
1 mph
1 km/h
1 mph
2 km/h
1 mph
2 km/h
2 mph
3 km/h
2 mph
4 km/h
2 mph
4 km/h
3 mph
5 km/h
4 mph
6 km/h
4 mph
7 km/h
5 mph
9 km/h
7 mph
12 km/h
11 mph
17 km/h
11 mph
17 km/h
10 mph
16 km/h
10 mph
17 km/h
11 mph
17 km/h
11 mph
18 km/h
11 mph
18 km/h
10 mph
17 km/h
10 mph
17 km/h
10 mph
15 km/h
63%0%0%0%0%0%0%0%0%0%0%0%0%0%0%0%0%0%0%0%0%0%0%0%0%0%0%0%0%0%0%0%0%0%0%0%84%72%0%0%82%0%0%0%0%0%0%0%
4 mi
7 km
6 mi
10 km
4 mi
7 km
0 mi
0 km
0 mi
0 km
6 mi
10 km
6 mi
10 km
4 mi
7 km
6 mi
10 km
6 mi
10 km
6 mi
10 km
6 mi
10 km
6 mi
10 km
6 mi
10 km
6 mi
10 km
6 mi
10 km
6 mi
10 km
6 mi
10 km
6 mi
10 km
6 mi
10 km
6 mi
10 km
6 mi
10 km
6 mi
10 km
6 mi
10 km
6 mi
10 km
6 mi
10 km
6 mi
10 km
6 mi
10 km
6 mi
10 km
6 mi
10 km
6 mi
10 km
1 mi
2 km
3 mi
5 km
6 mi
10 km
1 mi
2 km
6 mi
10 km
3 mi
5 km
3 mi
5 km
6 mi
10 km
6 mi
10 km
4 mi
7 km
6 mi
10 km
6 mi
9 km
6 mi
9 km
6 mi
10 km
6 mi
10 km
6 mi
10 km
6 mi
10 km

Day/Time
Weather
Condition
Temperature
Dew Point
Pressure
Humidity
Wind Direction
Wind Speed
Prob Precip %
Visibility
Prob Precip % = Probability of Precipitation.